Tracking 19477 objects as of 16-Jan-2019
HD Live streaming from Space Station
objects crossing your sky now

GALAXY 4R

Track GALAXY 4R now!
GALAXY 4R is classified as:


NORAD ID: 26298
Int'l Code: 2000-020A
Perigee: 35,894.1 km
Apogee: 35,944.2 km
Inclination: 9.3 °
Period: 1,442.5 minutes
Semi major axis: 42290 km
RCS: 26.0372 m2 (large)
Launch date: April 19, 2000
Source: United States (US)
Launch site: FRENCH GUIANA (FRGUI)

Television and Internet; 24 C-band, 24 Ku-band; North America.
aabbcc
Your satellite tracking list
Your tracking list is empty




NASA's NSSDC Master Catalog

Two Line Element Set (TLE):
1 26298U 00020A   19015.61170457 +.00000003 +00000-0 +00000-0 0  9999
2 26298 009.3028 041.7522 0005920 235.6083 131.6963 00.99826134068572
Source of the keplerian elements: AFSPC